Retour au catalogue

STARLINK-6249

ActifCommunicationsVLEO
NORAD 56541·PAYLOAD·🇺🇸 United States

Lancé May 14, 2023 depuis Cape Canaveral Space Force Station

Loading…

Prochains Passages (prochaines 24 heures)

TLE

FraisSource: CelesTrak SupGP

Époque: Sep 15, 2026, 02:47 UTC

1 56541C 23065AQ  26258.11645833 -.00022020  00000+0 -79762-3 0  2580
2 56541  43.0001 234.0638 0001454 262.8463 308.2722 15.27586897    15

Suivez STARLINK-6249 en temps réel avec AllMySat

Download on the App Store